EW2544 Weather Reports


time (UTC)temp
F
wind
direction
speed
knots
gust
knots
rain 1hr
in
rain 24hr
in
rain mn
in
humidity
%
barometer
mb
20260506145016 64 302 10.4 16.5 0.00 0.21 0.06 69 1011.1
20260506144016 64 312 7.8 15.6 0.00 0.21 0.06 69 1011.2
20260506143016 64 315 8.7 14.8 0.00 0.21 0.06 68 1011.2
20260506142036 64 333 7.8 14.8 0.00 0.21 0.06 66 1011.3
20260506141016 64 332 8.7 13.0 0.00 0.21 0.06 68 1011.3
20260506140123 64 0 9.6 13.0 0.00 0.21 0.06 70 1011.3
20260506135016 64 346 11.3 13.9 0.00 0.21 0.06 68 1011.4
20260506134016 64 304 12.2 15.6 0.00 0.21 0.06 65 1011.4
20260506133016 64 298 6.1 11.3 0.00 0.21 0.06 65 1011.5
20260506132016 64 306 6.1 11.3 0.00 0.21 0.06 67 1011.6
20260506131016 63 324 7.0 12.2 0.00 0.21 0.06 70 1011.5
20260506130036 64 329 7.8 13.0 0.00 0.21 0.06 69 1011.6
20260506125016 63 282 7.8 10.4 0.00 0.21 0.06 69 1011.6
20260506124015 62 313 5.2 15.6 0.00 0.21 0.06 71 1011.6
20260506123016 61 338 9.6 13.0 0.00 0.21 0.06 72 1011.7
20260506122015 61 337 10.4 13.9 0.00 0.21 0.06 72 1011.8
20260506121016 62 328 7.8 11.3 0.00 0.21 0.06 72 1011.8
20260506120036 62 338 7.0 11.3 0.00 0.21 0.06 71 1011.9
20260506115015 62 323 8.7 14.8 0.00 0.21 0.06 70
20260506114016 61 291 7.8 13.0 0.00 0.21 0.06 72
20260506113016 60 292 9.6 14.8 0.00 0.21 0.06 71
20260506112015 60 272 7.8 13.0 0.00 0.21 0.06 72
20260506111015 60 288 8.7 13.9 0.00 0.21 0.06 71
20260506110056 59 309 7.8 10.4 0.00 0.21 0.06 72
20260506105015 59 293 7.8 13.0 0.00 0.21 0.06 73
20260506104015 60 288 11.3 20.0 0.00 0.21 0.06 72
20260506103015 59 298 7.0 11.3 0.00 0.21 0.06 73
20260506102015 60 287 8.7 15.6 0.00 0.21 0.06 71
20260506101015 60 287 10.4 16.5 0.00 0.21 0.06 73
20260506100015 59 281 10.4 15.6 0.00 0.21 0.06 73
20260506095056 59 270 11.3 15.6 0.00 0.21 0.06 72
20260506094015 59 283 9.6 14.8 0.00 0.21 0.06 72
20260506093015 59 272 8.7 17.4 0.00 0.21 0.06 72
20260506092056 59 277 10.4 14.8 0.00 0.21 0.06 74
20260506091015 58 299 8.7 14.8 0.00 0.21 0.06 73
20260506090035 57 280 8.7 12.2 0.00 0.21 0.06 76
20260506085015 57 275 8.7 12.2 0.00 0.21 0.06 77
20260506084015 57 287 9.6 13.0 0.00 0.21 0.06 77
20260506083015 57 296 8.7 13.0 0.00 0.21 0.06 78
20260506082015 57 289 8.7 12.2 0.00 0.21 0.06 78
20260506081015 56 284 9.6 13.0 0.00 0.21 0.06 79
20260506073017 55 283 10.4 14.8 0.00 0.21 0.06 82
20260506072017 54 284 10.4 16.5 0.00 0.21 0.06 83
20260506071037 54 286 7.8 12.2 0.00 0.21 0.06 85
20260506062017 51 306 6.1 9.6 0.00 0.21 0.06 90
20260506061017 51 304 4.3 7.0 0.00 0.21 0.06 91
20260506051016 50 309 2.6 3.5 0.00 0.21 0.06 91
20260506045017 49 312 2.6 6.1 0.00 0.21 0.06 91 1011.8
20260506044016 49 317 3.5 7.0 0.00 0.21 0.06 92 1011.7
20260506043037 50 317 3.5 6.1 0.00 0.21 0.06 92 1011.7
20260506042016 50 315 4.3 5.2 0.00 0.21 0.06 92 1011.7
20260506041016 50 315 4.3 7.0 0.00 0.21 0.06 92 1011.7
20260506040017 50 307 4.3 7.0 0.00 0.21 0.06 92 1011.6
20260506035016 50 316 4.3 7.8 0.00 0.21 0.06 92 1011.7
20260506034016 50 281 2.6 3.5 0.00 0.21 0.06 92 1011.7
20260506033016 50 281 2.6 3.5 0.00 0.21 0.06 92 1011.7
20260506032016 50 281 1.7 3.5 0.00 0.21 0.06 92 1011.9
20260506031016 50 281 1.7 2.6 0.00 0.21 0.06 92 1011.8
20260506030016 50 281 2.6 3.5 0.00 0.21 0.06 92 1011.8
20260506025016 50 281 2.6 3.5 0.00 0.21 0.06 91 1011.9
20260506024016 51 281 2.6 3.5 0.00 0.21 0.06 91 1011.8
20260506023016 51 281 2.6 3.5 0.00 0.21 0.06 91 1011.8
20260506022016 51 281 2.6 3.5 0.00 0.21 0.06 91 1011.8
20260506021016 51 281 2.6 5.2 0.00 0.21 0.06 91 1011.8
20260506020016 51 281 3.5 6.1 0.00 0.21 0.06 91 1011.8
20260506015016 52 281 5.2 6.1 0.00 0.21 0.06 91 1011.8
20260506014016 52 281 4.3 6.1 0.00 0.21 0.06 91 1011.9
20260506013036 52 281 4.3 7.8 0.00 0.21 0.06 91 1011.9
20260506012016 52 282 5.2 7.0 0.00 0.21 0.06 91 1011.8
20260506011016 52 286 6.1 7.8 0.00 0.21 0.06 91 1011.9
20260506010016 52 284 4.3 7.0 0.00 0.21 0.06 91 1011.9
20260506005016 52 286 3.5 5.2 0.06 0.21 0.06 91 1011.9
20260506004016 52 286 2.6 5.2 0.06 0.21 0.06 91 1012.0
20260506003016 52 286 1.7 3.5 0.06 0.21 0.06 91 1012.1
20260506002036 52 286 3.5 7.0 0.06 0.21 0.06 91 1012.1
20260506001016 52 281 3.5 5.2 0.06 0.21 0.06 90 1012.2
20260506000016 52 281 3.5 7.0 0.06 0.21 0.06 90 1012.3
20260505235016 0 0.0 0.0 0.00 0.16 0.00
20260505234016 0 0.0 0.0 0.00 0.16 0.00
20260505233016 0 0.0 0.0 0.00 0.16 0.00
20260505232137 0 0.0 0.0 0.00 0.16 0.00
20260505231516 0 0.0 0.0 0.00 0.16 0.00
20260505230516 0 0.0 0.0 0.00 0.16 0.00
20260505225515 0 0.0 0.0 0.00 0.16 0.00
20260505224716 0 0.0 0.0 0.00 0.16 0.00
20260505224016 0 0.0 0.0 0.00 0.16 0.00
20260505223017 0 0.0 0.0 0.00 0.16 0.00
20260505222516 0 0.0 0.0 0.00 0.16 0.00
20260505221516 0 0.0 0.0 0.00 0.16 0.00
20260505220516 0 0.0 0.0 0.00 0.16 0.00
20260505215619 0 0.0 0.0 0.00 0.16 0.16
20260505215016 0 0.0 0.0 0.00 0.16 0.16
20260505214016 0 0.0 0.0 0.00 0.16 0.16
20260505213016 0 0.0 0.0 0.00 0.17 0.16
20260505212219 0 0.0 0.0 0.00 0.17 0.16
20260505211516 0 0.0 0.0 0.00 0.17 0.16
20260505210539 0 0.0 0.0 0.00 0.17 0.16
20260505210016 0 0.0 0.0 0.00 0.17 0.16
20260505205017 0 0.0 0.0 0.00 0.17 0.16
20260505204016 0 0.0 0.0 0.00 0.17 0.16
20260505203119 0 0.0 0.0 0.00 0.17 0.16
20260505202516 0 0.0 0.0 0.00 0.17 0.16
20260505201517 0 0.0 0.0 0.00 0.17 0.16
20260505200516 0 0.0 0.0 0.00 0.17 0.16
20260505195739 0 0.0 0.0 0.00 0.17 0.16
20260505195058 0 0.0 0.0 0.00 0.17 0.16
20260505194059 0 0.0 0.0 0.00 0.17 0.16
20260505193537 0 0.0 0.0 0.00 0.17 0.16
20260505192516 0 0.0 0.0 0.00 0.17 0.16
20260505191516 0 0.0 0.0 0.00 0.17 0.16
20260505190644 0 0.0 0.0 0.00 0.17 0.16
20260505190016 0 0.0 0.0 0.00 0.17 0.16
20260505185016 0 0.0 0.0 0.00 0.17 0.16
20260505184016 0 0.0 0.0 0.00 0.17 0.16
20260505183219 0 0.0 0.0 0.00 0.17 0.16
20260505182516 0 0.0 0.0 0.00 0.17 0.16
20260505181539 0 0.0 0.0 0.00 0.17 0.16
20260505181016 0 0.0 0.0 0.00 0.17 0.16
20260505180129 0 0.0 0.0 0.00 0.17 0.16
20260505175016 0 0.0 0.0 0.00 0.17 0.16
20260505174118 0 0.0 0.0 0.00 0.17 0.16
20260505173516 0 0.0 0.0 0.00 0.17 0.16
20260505172516 0 0.0 0.0 0.00 0.17 0.16
20260505171536 0 0.0 0.0 0.01 0.17 0.16
20260505170718 0 0.0 0.0 0.02 0.17 0.16
20260505170016 0 0.0 0.0 0.03 0.17 0.16
20260505165038 0 0.0 0.0 0.05 0.17 0.16
20260505164515 0 0.0 0.0 0.05 0.17 0.16
20260505163536 0 0.0 0.0 0.06 0.17 0.16
20260505163027 54 285 10.4 10.4 0.10 0.17 0.16 88 1012.6
20260505162530 54 293 10.4 10.4 0.14 0.17 0.16 88 1012.5
20260505162016 54 293 13.0 15.6 0.16 0.17 0.16 88 1012.3
20260505161035 54 286 13.9 21.7 0.14 0.48 0.14 89 1012.3
20260505153016 57 284 23.5 30.4 0.06 0.39 0.06 84 1011.2
20260505152016 60 287 11.3 16.5 0.00 0.34 0.00 79 1010.7
20260505151016 61 281 12.2 18.2 0.00 0.34 0.00 78 1010.4